星链-11705 (STARLINK-11705)

导读

STARLINK-11705是美国于2025年4月29日发射的Starlink星座卫星,属于 SpaceX 打造的星链互联网卫星星座组网卫星,该卫星旨在为全球范围内尤其是偏远地区、网络基础设施不完善区域提供高速低延迟的宽带互联网服务,进一步扩充星链星座的在轨规模,增强其全球覆盖与服务能力。

基本信息
目录编号:
63758
目录名称:
STARLINK-11705
国际标识:
2025-089H
轨道中心:
EARTH
卫星名称:
星链-11705
卫星全名:
星链-11705 (STARLINK-11705)
卫星状态:
在轨 (已飞行494 天)
发射日期:
2025-04-29 UTC
国别 :
美国 (US)
星等 :
--
轨道信息
数据来源 国际轨道数据
星历时间: 2026-09-05T12:26:27+0800
5小时前
查看轨道信息
半长轴: 6734.67km
偏心率: 0.0002552
轨道倾角: 43.001°
近地点辐角 283.366°
升交点赤经 290.467°
平近点角 76.692°
近地点: 354.814km
远地点: 358.252km
周期: 91.671分钟
每日圈数: 15.708268
详细信息
固有亮度:
5
最大亮度:
2.5
卫星平台:
Starlink V1.0
覆盖范围:
全球
运营商:
太空探索技术公司
运营商所在国:
美国
制造商(研发单位):
太空探索技术公司
制造商所在国:
美国
使用方式:
暂无
卫星简介
Starlink 计划是 SpaceX 推出的全球卫星互联网项目,通过发射低轨道卫星,为全球尤其是偏远地区提供高速、低延迟的互联网服务。自 2019 年起,Starlink 已部署数千颗卫星,旨在缩小全球数字鸿沟,推动互联网普及。该项目还为军事、航空等行业提供通信支持,带来广泛经济效益。
2D轨道图
3D轨道图
轨道高度分析图
轨道倾角分析图
轨道综合分析图
查看轨道综合分析图